Wetbulb
69.01 73.34 76.39 77.12 76.55 76.36 76.05 75.87 75.70 75.45 75.17 74.32 73.76 73.09 72.42 71.70 70.74 70.54 70.37 70.71 70.98 72.36 72.65 72.03 71.01 70.86 70.63 69.98 69.38 69.00 68.84 68.71 68.25 68.55 69.26 69.48 69.17 69.44 69.90 68.95 68.14 67.43 71.04
71.22 73.58 76.02 76.70 76.71 76.67 76.28 75.57 75.75 75.30 74.90 74.44 73.26 72.48 71.50 70.94 70.17 71.17 71.11 70.62 71.35 72.30 72.10 71.33 70.40 70.19 69.65 68.98 68.34 68.15 68.31 68.08 67.71 68.28 68.80 68.65 69.16 68.57 68.19 68.14 68.14 66.91 69.70
71.28 73.56 75.03 76.05 76.24 76.36 75.98 75.46 74.98 74.22 74.34 73.64 72.52 71.42 70.24 70.02 70.09 71.59 71.74 71.09 71.94 72.17 72.15 70.55 70.11 69.32 68.87 68.27 67.70 67.31 67.82 67.78 67.32 67.42 68.29 64.23 67.23 68.63 68.15 68.10 68.84 68.61 67.61
72.21 72.96 73.99 75.75 76.23 76.20 75.59 74.96 74.59 74.14 73.74 72.73 71.37 70.25 69.36 69.52 71.85 72.76 71.95 71.58 72.25 71.99 70.54 69.62 69.21 68.63 68.49 68.42 67.86 66.98 66.87 66.87 66.98 68.37 66.53 66.85 68.57 70.75 70.54 68.02 68.83 69.74 69.87
71.06 72.20 74.56 75.70 76.03 75.65 75.31 74.79 74.11 73.27 72.08 71.08 70.19 69.27 69.14 69.81 72.13 72.22 72.05 71.97 71.58 70.63 69.52 69.22 68.60 68.40 68.67 68.57 68.06 67.40 67.13 67.49 68.60 66.65 64.25 64.77 66.76 70.18 71.22 70.25 69.55 70.15 70.56
69.88 72.42 74.66 75.51 75.58 75.15 74.86 74.54 73.95 72.46 71.34 70.25 69.21 68.59 69.00 70.13 71.40 71.28 70.99 70.76 70.41 70.59 69.33 68.89 68.67 68.94 68.92 68.73 68.09 67.58 67.43 67.83 66.62 64.86 65.33 67.73 66.64 70.41 70.59 70.46 70.24 70.10 69.74
70.84 72.21 74.13 75.49 75.37 74.95 74.58 74.19 74.07 73.07 71.40 69.87 68.90 68.75 69.06 69.90 70.36 70.06 69.67 69.48 69.42 69.27 68.79 68.70 68.74 69.06 68.68 68.15 67.53 67.09 67.16 67.16 63.50 62.42 62.52 63.89 65.74 68.83 69.25 68.75 68.52 68.52 68.67
70.40 71.61 73.45 74.07 74.42 74.40 74.23 74.01 73.81 73.11 72.01 70.13 69.35 69.01 69.02 69.47 69.65 69.38 69.06 68.92 68.78 68.66 68.61 68.76 68.97 69.03 68.29 67.59 66.56 66.02 66.37 66.09 62.53 61.47 61.66 64.29 68.96 68.28 67.83 66.92 66.78 66.73 66.30
69.47 69.64 71.10 71.74 72.71 72.99 73.46 73.34 73.15 72.74 72.23 70.79 70.25 69.85 69.33 69.22 69.28 69.12 68.80 68.63 68.57 68.71 69.05 69.23 68.93 68.20 67.30 66.71 65.67 64.85 65.53 65.07 59.36 61.37 64.97 65.75 69.12 68.17 67.15 66.18 65.66 65.17 64.94
67.77 68.00 68.59 69.85 71.63 71.60 71.02 71.76 71.88 71.45 71.27 70.29 70.00 69.31 68.19 67.82 68.37 69.19 68.76 68.99 69.23 69.55 69.45 69.04 67.94 66.61 65.80 65.77 65.10 65.40 64.99 63.70 57.85 63.31 65.42 66.49 68.67 67.89 66.05 65.20 64.48 64.25 64.00
67.10 67.28 68.55 68.17 68.00 68.37 69.30 69.88 70.72 70.48 70.07 69.31 68.44 67.15 66.36 64.93 65.87 66.42 66.41 67.74 69.14 69.99 69.72 68.55 66.85 65.97 66.19 65.59 65.10 64.51 63.76 57.79 55.71 63.66 65.02 68.69 68.04 66.94 65.39 64.40 63.71 63.49 62.93
64.72 66.17 67.85 67.88 67.29 67.42 69.37 67.76 67.54 69.25 68.77 67.92 66.58 65.11 64.10 63.48 63.70 65.12 64.64 66.78 68.39 69.50 69.63 68.36 66.57 65.92 63.82 59.07 58.72 61.79 56.57 55.18 57.98 63.18 64.79 68.20 67.37 66.41 65.01 63.75 63.34 62.63 62.17
64.39 65.70 66.70 67.56 67.04 66.76 66.61 65.82 64.76 65.59 66.56 67.42 66.17 64.99 64.17 64.26 62.63 62.53 63.49 64.68 64.65 65.46 66.50 66.26 63.88 60.20 57.17 56.51 55.76 53.82 54.53 53.81 57.06 62.39 65.05 67.50 66.62 65.89 64.61 63.48 62.45 61.77 61.38
64.31 65.32 66.65 65.96 65.55 64.14 65.94 64.08 63.83 64.16 64.74 65.98 67.02 66.23 64.84 62.93 62.45 62.43 62.89 62.80 62.79 63.86 62.84 63.36 61.44 59.13 56.26 55.24 55.25 53.80 54.28 53.19 55.59 61.33 63.74 65.93 66.46 65.57 64.16 62.96 62.06 61.24 60.71
64.57 65.59 66.30 66.52 64.73 64.70 65.21 64.57 63.78 64.30 65.23 66.01 67.63 66.79 65.93 63.13 62.84 63.36 62.84 62.20 61.72 62.40 62.65 63.49 62.11 60.64 57.76 55.81 54.04 53.63 52.17 52.16 54.85 60.75 61.14 63.75 65.50 65.09 63.46 62.35 61.97 61.23 60.38
65.05 65.65 66.59 66.71 66.71 66.07 65.36 63.95 64.30 64.80 65.69 65.09 67.47 67.16 66.50 64.67 63.41 63.29 63.39 62.90 62.12 62.09 62.67 64.14 63.39 60.76 57.14 54.90 53.68 51.81 51.29 51.19 52.34 59.02 59.25 60.84 63.85 64.24 62.88 61.96 61.70 61.38 60.64
65.20 66.32 66.46 66.86 67.04 66.22 66.08 66.25 66.48 67.02 65.96 64.76 64.46 64.41 65.65 63.17 62.49 62.64 62.20 62.83 62.98 62.26 62.10 60.60 60.96 58.01 54.90 53.86 51.53 50.76 50.94 50.41 52.09 57.74 58.12 58.14 60.33 61.75 62.69 61.78 61.29 60.99 60.31
60.88 64.72 66.97 68.58 67.24 66.37 66.02 66.50 66.68 66.80 66.75 67.39 66.81 64.99 63.82 63.41 62.56 61.83 61.88 62.20 63.78 62.91 62.29 60.32 58.93 56.72 54.05 52.04 49.62 49.21 49.74 50.28 50.59 55.81 56.90 56.59 56.23 57.29 61.00 61.98 61.09 60.80 60.12
54.62 55.54 60.83 66.69 66.79 66.75 65.29 66.95 66.75 66.82 66.25 66.58 66.71 66.60 66.25 64.57 63.39 62.10 61.41 61.74 63.50 62.99 62.11 61.60 59.11 56.30 52.92 50.56 49.62 48.92 48.71 49.45 50.22 52.10 55.26 55.02 54.05 53.74 53.44 59.77 60.27 60.31 60.12
51.26 52.16 53.35 55.84 62.91 67.08 67.28 67.11 65.85 64.70 65.07 65.82 66.52 66.05 66.84 65.27 64.55 63.09 61.96 61.53 63.37 62.79 62.36 60.75 58.96 55.59 53.28 51.62 51.56 50.24 48.16 48.65 49.28 49.36 50.38 55.30 54.08 52.52 51.22 52.70 53.58 53.60 58.83
49.63 49.31 50.28 52.19 52.67 53.66 54.24 61.87 64.38 65.13 64.69 63.54 64.92 66.81 65.83 65.54 65.63 64.72 62.16 61.61 61.27 62.76 62.86 61.96 59.36 56.31 52.63 51.61 48.41 45.97 45.44 45.69 46.90 48.23 48.84 49.16 51.90 51.62 49.58 49.99 48.29 46.69 51.34
49.31 49.96 50.21 49.70 49.60 50.46 52.33 52.56 55.13 63.45 64.83 66.04 66.32 66.18 66.67 65.97 65.09 65.05 64.97 63.57 61.48 60.57 59.90 60.68 59.71 55.65 54.92 52.66 48.71 43.84 42.10 43.76 44.77 45.44 47.20 48.53 47.88 48.67 49.17 48.70 46.71 44.81 45.15
49.67 49.96 51.11 50.89 50.72 50.15 49.74 50.26 50.76 51.72 57.05 62.40 62.48 63.04 64.37 65.22 65.25 64.54 64.68 63.63 63.27 61.88 60.51 59.40 59.37 57.34 54.78 52.83 49.65 47.54 42.51 42.28 41.35 43.28 44.49 47.51 46.49 46.52 47.26 48.42 47.22 45.75 44.38
49.75 51.06 51.75 51.85 51.38 51.92 50.00 48.69 47.91 48.40 48.62 53.69 61.06 63.37 63.85 64.24 64.57 64.84 64.49 62.94 62.53 62.68 62.10 61.69 60.01 58.69 56.21 52.60 51.19 50.33 49.24 45.83 42.01 40.68 42.03 44.21 46.08 46.36 46.47 46.06 46.83 45.75 44.71
50.91 50.61 50.71 50.98 50.66 50.89 51.00 49.73 47.35 46.89 48.07 49.41 50.49 52.12 58.56 63.27 64.29 64.32 64.24 63.19 61.93 60.98 63.09 62.02 61.23 59.03 57.26 56.04 53.09 49.96 48.34 47.05 43.15 41.60 39.21 42.28 44.23 45.53 47.34 46.93 45.11 44.32 42.53
50.23 50.28 50.10 49.81 50.22 50.21 49.43 49.16 48.99 48.11 47.30 47.19 47.64 48.09 50.25 55.05 59.30 62.58 62.94 62.71 61.98 61.72 61.22 61.22 60.34 60.37 59.57 58.05 55.20 51.52 48.78 48.07 47.70 42.49 43.34 42.86 43.56 44.52 45.13 45.17 44.29 43.82 42.32
MSLP
1014.86 1014.68 1014.94 1015.36 1015.65 1015.85 1016.04 1016.31 1016.62 1016.90 1017.16 1017.41 1017.68 1017.98 1018.17 1018.25 1018.31 1018.36 1018.42 1018.42 1018.41 1018.47 1018.60 1018.79 1019.01 1019.10 1019.23 1019.36 1019.41 1019.51 1019.56 1019.62 1019.67 1019.78 1019.86 1019.89 1019.82 1019.79 1019.70 1019.78 1019.86 1019.78 1019.70
1014.33 1014.69 1014.93 1015.38 1015.61 1015.88 1016.19 1016.52 1016.78 1017.12 1017.26 1017.50 1017.70 1018.03 1018.37 1018.44 1018.47 1018.43 1018.47 1018.56 1018.53 1018.68 1018.77 1019.06 1019.26 1019.37 1019.51 1019.60 1019.69 1019.74 1019.81 1019.90 1020.07 1020.20 1020.24 1020.15 1020.12 1020.05 1020.03 1019.99 1019.95 1019.93 1019.92
1014.37 1014.71 1014.97 1015.32 1015.66 1016.06 1016.35 1016.69 1017.00 1017.16 1017.33 1017.67 1017.88 1018.27 1018.55 1018.58 1018.57 1018.52 1018.57 1018.67 1018.78 1018.90 1019.08 1019.38 1019.59 1019.73 1019.82 1019.89 1019.94 1019.95 1020.09 1020.30 1020.34 1020.36 1020.34 1020.38 1020.21 1020.11 1020.18 1020.25 1020.23 1020.20 1020.18
1014.21 1014.78 1015.12 1015.39 1015.79 1016.19 1016.52 1016.92 1017.16 1017.32 1017.54 1017.94 1018.27 1018.55 1018.73 1018.75 1018.72 1018.55 1018.68 1018.88 1019.11 1019.23 1019.45 1019.68 1019.86 1020.00 1020.09 1020.17 1020.14 1020.10 1020.23 1020.45 1020.45 1020.27 1020.29 1020.37 1020.25 1020.13 1020.16 1020.34 1020.38 1020.28 1020.27
1014.26 1014.83 1015.25 1015.51 1015.96 1016.36 1016.75 1017.11 1017.32 1017.54 1017.92 1018.24 1018.52 1018.75 1018.88 1018.94 1018.93 1018.98 1019.10 1019.27 1019.41 1019.63 1019.75 1019.93 1020.14 1020.24 1020.30 1020.35 1020.31 1020.26 1020.26 1020.32 1020.57 1020.57 1020.58 1020.58 1020.59 1020.46 1020.35 1020.44 1020.60 1020.60 1020.46
1014.38 1014.96 1015.39 1015.74 1016.14 1016.54 1016.86 1017.14 1017.40 1017.73 1018.11 1018.42 1018.69 1018.86 1018.98 1019.04 1019.27 1019.39 1019.56 1019.72 1019.86 1019.94 1020.00 1020.17 1020.35 1020.45 1020.50 1020.58 1020.59 1020.55 1020.48 1020.49 1020.54 1020.52 1020.68 1020.71 1020.75 1020.66 1020.72 1020.78 1020.87 1020.86 1020.75
1014.64 1015.02 1015.54 1015.94 1016.31 1016.64 1016.93 1017.12 1017.36 1017.70 1018.10 1018.50 1018.76 1018.97 1019.12 1019.23 1019.49 1019.68 1019.87 1019.94 1020.05 1020.11 1020.18 1020.29 1020.41 1020.60 1020.70 1020.73 1020.71 1020.70 1020.76 1020.79 1020.94 1020.88 1020.96 1021.06 1021.00 1020.95 1020.99 1021.12 1021.11 1021.15 1021.22
1014.74 1015.19 1015.56 1016.09 1016.44 1016.73 1016.98 1017.21 1017.37 1017.63 1017.95 1018.49 1018.86 1019.08 1019.21 1019.36 1019.66 1019.84 1019.96 1020.02 1020.12 1020.23 1020.34 1020.41 1020.46 1020.57 1020.75 1020.77 1020.77 1020.77 1020.91 1020.87 1021.04 1021.25 1021.24 1021.19 1021.11 1021.24 1021.35 1021.38 1021.39 1021.49 1021.49
1014.69 1015.25 1015.73 1016.00 1016.37 1016.69 1017.00 1017.23 1017.44 1017.58 1017.89 1018.41 1018.82 1019.13 1019.33 1019.52 1019.72 1019.83 1019.94 1020.06 1020.17 1020.32 1020.45 1020.55 1020.63 1020.71 1020.83 1020.91 1020.86 1020.78 1020.86 1020.87 1021.01 1021.09 1021.22 1021.33 1021.26 1021.43 1021.62 1021.66 1021.69 1021.81 1021.87
1014.96 1015.22 1015.82 1016.05 1016.28 1016.67 1017.10 1017.19 1017.50 1017.76 1018.01 1018.28 1018.72 1019.07 1019.29 1019.57 1019.82 1019.92 1019.99 1020.02 1020.14 1020.35 1020.49 1020.59 1020.69 1020.77 1020.87 1020.94 1020.90 1020.73 1020.76 1020.82 1021.20 1021.18 1021.37 1021.40 1021.40 1021.65 1021.87 1021.88 1021.89 1022.02 1022.16
1015.22 1015.38 1015.64 1016.09 1016.40 1016.79 1017.15 1017.37 1017.54 1017.76 1018.09 1018.39 1018.63 1018.90 1019.22 1019.62 1019.82 1019.99 1020.02 1020.07 1020.19 1020.33 1020.46 1020.52 1020.61 1020.65 1020.85 1020.92 1020.92 1020.76 1020.79 1020.90 1021.13 1021.17 1021.28 1021.29 1021.45 1021.76 1022.07 1022.19 1022.20 1022.33 1022.44
1015.32 1015.53 1015.53 1015.78 1016.14 1016.56 1016.82 1017.29 1017.61 1017.85 1018.11 1018.33 1018.61 1018.89 1019.02 1019.35 1019.74 1019.93 1019.98 1020.00 1020.15 1020.25 1020.37 1020.43 1020.47 1020.64 1020.79 1021.00 1021.01 1020.85 1020.97 1021.06 1021.32 1021.15 1021.17 1021.27 1021.47 1021.78 1022.15 1022.36 1022.47 1022.57 1022.70
1015.23 1015.49 1015.46 1015.49 1015.70 1016.10 1016.49 1017.18 1017.56 1017.80 1018.06 1018.30 1018.50 1018.75 1018.94 1019.15 1019.49 1019.67 1019.85 1019.97 1020.20 1020.27 1020.39 1020.40 1020.53 1020.67 1020.84 1020.97 1021.01 1020.91 1020.88 1020.93 1021.32 1021.30 1021.16 1021.27 1021.49 1021.67 1022.02 1022.29 1022.53 1022.68 1022.83
1015.01 1015.16 1015.30 1015.17 1015.36 1015.81 1016.29 1016.91 1017.16 1017.48 1017.76 1018.06 1018.22 1018.41 1018.66 1018.99 1019.34 1019.64 1019.72 1019.82 1020.09 1020.34 1020.54 1020.61 1020.68 1020.62 1020.70 1020.72 1020.71 1020.73 1020.60 1020.63 1021.15 1021.35 1021.28 1021.20 1021.44 1021.74 1021.93 1022.19 1022.44 1022.69 1022.87
1014.93 1014.91 1015.00 1015.34 1015.47 1015.49 1016.01 1016.38 1016.71 1016.91 1017.17 1017.31 1017.69 1017.98 1018.24 1018.59 1018.86 1019.10 1019.35 1019.55 1019.72 1019.82 1020.10 1020.37 1020.49 1020.52 1020.66 1020.67 1020.60 1020.59 1020.66 1020.49 1020.99 1021.16 1021.38 1021.27 1021.38 1021.66 1021.96 1022.18 1022.37 1022.58 1022.88
1014.74 1014.67 1014.70 1015.03 1015.18 1015.51 1015.82 1015.97 1016.11 1016.36 1016.46 1016.83 1017.11 1017.39 1017.68 1017.95 1018.33 1018.62 1018.81 1019.05 1019.18 1019.31 1019.51 1019.69 1019.86 1020.20 1020.43 1020.46 1020.38 1020.57 1020.64 1020.61 1020.93 1021.14 1021.34 1021.34 1021.36 1021.55 1021.78 1021.99 1022.33 1022.44 1022.65
1014.20 1014.20 1014.39 1014.54 1014.70 1015.33 1015.59 1015.76 1015.90 1015.98 1016.07 1016.28 1016.52 1016.80 1017.09 1017.39 1017.74 1017.93 1018.34 1018.62 1018.63 1018.84 1019.00 1019.36 1019.58 1019.73 1020.05 1020.10 1020.35 1020.41 1020.50 1020.58 1020.81 1020.97 1021.10 1021.20 1021.33 1021.44 1021.58 1021.74 1021.98 1022.35 1022.56
1013.87 1014.06 1014.14 1014.22 1014.45 1014.80 1015.04 1015.23 1015.69 1015.79 1015.96 1016.06 1016.11 1016.23 1016.42 1016.59 1016.89 1017.29 1017.69 1017.90 1017.97 1018.35 1018.61 1018.82 1019.32 1019.60 1019.83 1019.99 1020.25 1020.47 1020.46 1020.58 1020.70 1020.97 1020.95 1021.05 1021.16 1021.25 1021.38 1021.52 1021.65 1021.91 1022.22
1013.50 1013.72 1013.90 1014.24 1014.51 1014.68 1015.04 1014.91 1015.08 1015.23 1015.51 1015.77 1015.93 1016.03 1015.94 1015.95 1016.30 1016.74 1017.00 1017.23 1017.46 1017.78 1018.08 1018.46 1018.75 1019.05 1019.50 1019.79 1019.99 1020.14 1020.38 1020.43 1020.33 1020.56 1020.82 1020.79 1020.94 1021.16 1021.29 1021.30 1021.42 1021.59 1021.88
1013.67 1013.66 1013.71 1014.05 1014.15 1014.43 1014.74 1015.06 1015.17 1015.28 1015.24 1015.23 1015.40 1015.68 1015.74 1015.82 1015.75 1016.10 1016.39 1016.64 1017.08 1017.60 1017.81 1018.08 1018.27 1018.63 1018.79 1019.18 1019.62 1019.87 1020.04 1020.18 1020.10 1020.18 1020.29 1020.33 1020.46 1020.67 1020.97 1021.19 1021.49 1021.66 1021.73
1013.92 1014.14 1014.26 1014.12 1014.22 1014.58 1014.87 1015.04 1015.27 1015.34 1015.46 1015.54 1015.33 1015.06 1015.20 1015.51 1015.56 1015.62 1016.11 1016.36 1016.59 1017.00 1017.11 1017.57 1017.93 1018.31 1018.63 1018.70 1019.69 1020.31 1020.34 1020.17 1020.01 1019.84 1019.98 1020.15 1020.20 1020.28 1020.56 1020.83 1021.10 1021.42 1021.55
1014.64 1014.75 1014.84 1014.84 1014.76 1014.70 1014.60 1014.70 1014.93 1014.93 1014.96 1014.91 1014.77 1014.76 1014.77 1014.94 1015.24 1015.57 1015.64 1015.79 1016.22 1016.74 1016.84 1016.99 1017.37 1017.97 1018.23 1018.68 1019.48 1020.43 1020.74 1020.55 1019.91 1019.48 1019.46 1019.63 1019.77 1019.88 1020.12 1020.36 1020.73 1021.09 1021.36
1014.98 1015.13 1015.18 1015.04 1014.83 1014.69 1014.75 1014.76 1014.75 1014.92 1014.96 1015.04 1015.07 1015.03 1014.80 1014.76 1014.79 1015.00 1015.21 1015.58 1015.84 1016.07 1016.31 1016.62 1016.95 1017.31 1017.94 1018.40 1018.18 1019.05 1020.34 1020.14 1019.86 1019.27 1019.11 1019.11 1019.25 1019.49 1019.57 1019.70 1020.18 1020.54 1020.95
1015.14 1015.23 1015.19 1015.06 1014.92 1014.74 1014.73 1014.95 1015.23 1015.29 1015.43 1015.25 1015.05 1014.85 1014.68 1014.31 1014.31 1014.48 1014.60 1014.82 1015.17 1015.56 1015.79 1015.80 1016.12 1016.67 1017.02 1017.83 1018.43 1017.91 1018.02 1018.45 1019.29 1019.56 1019.07 1018.90 1019.04 1019.17 1019.43 1019.62 1019.81 1020.27 1020.66
1015.32 1015.54 1015.48 1015.29 1015.18 1015.08 1015.00 1015.02 1015.24 1015.31 1015.36 1015.18 1015.09 1014.98 1014.69 1014.38 1014.04 1013.85 1013.92 1014.20 1014.68 1014.83 1014.90 1015.07 1015.33 1015.75 1016.29 1016.71 1017.02 1017.48 1017.99 1018.29 1018.52 1018.95 1019.10 1018.92 1018.98 1018.78 1018.89 1018.83 1019.39 1020.05 1020.40
1015.67 1015.71 1015.73 1015.73 1015.62 1015.53 1015.46 1015.41 1015.38 1015.45 1015.40 1015.33 1015.20 1015.09 1014.73 1014.33 1014.01 1013.90 1013.50 1013.66 1013.90 1014.26 1014.49 1014.67 1014.99 1015.32 1015.54 1015.81 1016.08 1016.37 1016.69 1017.34 1018.06 1018.64 1019.03 1019.02 1018.86 1018.79 1018.53 1018.67 1018.19 1019.12 1020.21
Wind_Speed
4 9 15 17 17 16 16 15 14 14 15 16 15 13 11 11 11 10 10 10 9 14 16 16 15 14 14 13 13 12 12 13 13 13 13 12 13 13 16 13 10 7 14
12 9 16 18 17 16 15 14 13 12 15 15 15 14 10 10 9 9 10 10 10 13 16 16 15 14 13 12 12 11 12 12 12 11 10 9 9 11 12 12 11 8 12
13 10 13 17 16 15 15 15 11 14 14 14 14 13 9 9 9 5 11 11 11 13 17 15 14 14 13 12 10 9 10 9 8 5 3 2 5 9 10 9 10 10 9
14 10 11 17 16 16 16 14 12 13 15 13 12 11 9 10 10 14 14 13 14 16 16 14 14 13 12 11 9 6 6 6 3 1 4 3 7 11 8 10 10 12 9
14 10 11 16 17 17 16 14 13 16 16 14 12 11 11 11 13 15 16 15 14 14 14 14 13 12 11 10 7 5 5 6 8 6 6 6 6 13 15 10 11 13 16
12 11 12 15 17 17 16 15 14 16 16 14 13 12 12 12 13 14 14 13 13 12 13 13 12 11 10 8 6 5 6 8 8 5 6 8 6 13 15 17 17 16 17
13 12 13 15 16 16 15 14 14 17 17 14 13 12 12 13 12 12 12 12 11 12 12 12 11 10 8 7 5 5 6 9 5 5 6 5 5 11 12 13 14 14 15
15 11 12 15 15 15 13 11 13 16 17 14 12 11 11 12 12 11 11 11 11 11 11 11 11 9 8 6 3 3 5 6 6 4 5 5 10 11 11 12 14 12 10
14 11 8 10 12 14 11 10 12 15 16 15 13 12 10 9 11 12 11 11 11 11 11 10 9 8 7 5 3 1 4 6 5 5 5 4 10 12 11 12 12 11 10
12 12 8 6 8 8 6 10 10 10 13 17 14 12 12 11 9 9 8 9 10 10 10 9 8 8 6 5 3 2 1 2 5 6 4 4 11 12 8 10 11 11 11
9 11 9 7 7 7 6 6 9 11 12 11 12 13 11 5 6 7 7 9 8 10 10 10 9 8 6 5 4 3 1 1 4 4 3 11 10 10 9 9 9 11 10
9 9 11 10 9 9 7 7 6 6 4 5 6 7 5 7 6 7 6 9 8 10 11 10 9 8 6 3 2 3 1 1 3 4 3 12 12 10 9 9 10 10 10
4 2 8 12 10 11 7 5 3 3 3 4 6 7 6 6 4 4 3 4 3 6 3 5 5 3 5 4 3 3 3 1 3 3 6 11 12 12 10 10 9 9 9
4 3 1 8 10 8 7 6 6 5 5 4 7 9 5 3 5 4 4 5 5 3 4 4 3 5 6 6 7 5 5 4 3 2 4 12 13 12 11 11 11 9 9
6 6 4 3 2 8 10 7 6 7 7 8 8 8 6 4 6 7 6 5 5 5 5 5 4 4 5 5 6 5 5 4 6 3 3 10 11 12 11 11 11 11 9
8 7 7 5 4 3 4 5 6 8 8 7 8 8 9 5 7 7 7 6 6 6 6 6 7 6 5 5 5 5 5 4 5 6 4 5 12 12 12 12 12 12 11
11 11 9 8 8 6 5 4 3 2 3 5 7 9 11 7 7 7 6 5 7 6 8 5 5 4 5 4 6 5 4 5 5 6 5 4 6 11 12 14 13 12 12
5 9 11 10 9 8 7 5 4 4 2 1 3 5 7 8 8 6 5 5 7 6 5 4 4 4 4 5 4 4 4 4 5 6 5 5 4 5 9 13 14 15 14
6 7 7 8 8 8 6 6 6 7 5 4 4 3 7 9 7 7 5 5 6 6 5 4 4 4 4 4 5 4 4 4 5 4 6 7 7 5 4 9 12 13 14
5 5 1 3 6 11 8 7 4 3 3 4 6 4 6 5 9 8 5 6 6 5 7 4 5 4 4 5 5 5 5 5 4 5 6 7 8 8 6 7 5 5 12
7 8 7 7 5 2 2 3 3 7 5 4 5 8 6 5 6 9 5 5 5 8 10 8 5 7 5 4 4 3 3 4 6 5 4 5 8 9 7 6 5 4 6
6 7 7 6 6 4 3 2 0 2 3 6 6 7 9 6 5 3 7 8 6 4 5 8 8 3 2 5 4 3 2 4 4 6 5 6 8 7 9 9 8 7 6
7 6 5 5 5 3 3 2 3 2 2 1 2 3 5 7 7 7 8 5 8 7 7 6 6 8 7 5 6 6 3 7 1 2 8 6 7 6 7 10 10 9 8
4 5 6 6 6 5 5 3 2 1 2 2 2 3 5 7 8 8 8 7 8 7 8 10 6 6 5 8 2 7 2 5 5 3 3 5 4 8 7 6 8 8 9
4 3 4 6 6 6 5 3 2 2 2 2 2 4 5 6 8 9 10 7 6 5 9 9 9 10 8 6 7 2 3 2 0 3 4 4 2 4 6 7 6 6 7
3 4 5 6 5 6 6 5 4 4 5 4 4 4 4 3 4 7 8 8 7 6 7 6 5 7 9 10 7 6 6 6 10 3 2 3 4 4 3 5 8 6 5
Wind_Direction
145 144 147 146 139 131 126 125 126 127 127 124 117 107 96 89 84 85 90 94 91 108 105 93 89 89 88 88 88 89 88 89 90 91 83 72 72 71 69 79 70 55 78
136 138 138 142 140 133 127 124 125 131 127 119 107 90 94 91 89 90 101 107 101 111 102 96 96 94 94 93 92 95 96 95 91 95 79 77 69 74 83 81 77 72 70
132 137 137 135 129 130 129 128 129 130 108 104 99 105 102 97 95 82 112 114 95 112 102 98 94 93 93 92 93 93 96 98 105 122 19 126 87 79 87 87 76 72 76
134 138 131 131 130 128 127 128 130 105 104 100 102 106 108 107 95 92 119 112 108 105 103 101 99 99 97 94 92 92 91 91 83 180 170 83 68 68 104 96 81 77 51
134 133 135 130 132 131 131 131 122 112 109 112 114 116 117 118 99 96 98 103 108 109 106 105 106 106 102 99 94 80 47 19 31 97 95 81 72 68 74 88 86 79 64
131 130 135 137 137 137 137 138 132 125 121 120 121 124 127 123 108 103 105 102 107 105 109 111 111 109 104 97 78 44 16 14 19 98 81 89 85 81 79 77 76 70 66
127 135 132 141 140 141 145 148 145 137 128 125 128 131 134 129 121 118 117 118 118 116 117 120 120 115 107 98 75 37 20 13 38 94 94 89 91 85 81 77 65 63 65
131 133 137 138 141 146 151 150 144 140 131 132 133 135 138 136 135 135 134 132 132 129 129 130 129 126 122 116 101 40 36 21 48 89 97 95 103 94 87 81 77 71 65
130 129 137 151 158 150 152 154 154 149 138 140 142 139 134 137 150 147 145 143 140 140 139 137 135 133 132 133 135 77 38 14 85 129 108 108 113 99 93 88 85 79 74
138 134 134 137 139 134 135 135 143 154 147 145 147 143 144 149 155 152 153 151 150 150 149 146 143 140 145 150 170 196 71 23 92 104 111 126 117 110 100 99 95 88 84
140 146 146 146 139 133 137 148 146 152 150 155 155 157 150 152 159 164 168 165 164 160 163 158 155 152 153 164 196 230 10 343 121 128 137 128 123 120 115 106 103 100 98
152 165 163 163 169 160 163 157 160 164 162 164 163 170 164 164 176 181 183 177 176 184 170 170 166 168 163 187 228 235 271 300 160 141 138 136 134 129 124 119 117 117 112
136 157 180 175 177 168 160 162 164 168 172 176 174 180 190 177 183 180 170 174 173 170 174 170 176 186 192 194 228 213 224 207 154 160 158 150 147 143 139 137 135 132 127
223 239 27 181 172 154 156 168 174 173 182 179 195 192 198 172 175 181 180 180 175 182 196 197 200 218 214 215 215 214 201 176 148 169 177 156 155 155 152 149 148 144 142
203 212 218 136 163 163 162 176 171 188 187 192 188 198 195 175 181 177 189 183 188 181 187 199 211 218 230 225 204 197 204 197 156 161 174 163 159 163 164 162 162 158 156
199 198 207 201 177 168 141 185 184 189 202 181 191 196 202 194 189 190 188 192 192 187 198 202 197 205 215 204 213 212 205 217 152 165 181 171 163 166 171 174 177 171 167
188 193 192 196 188 181 184 189 246 219 175 193 182 189 198 196 196 185 183 194 197 192 205 198 219 187 191 202 201 209 204 215 166 173 176 174 172 173 178 183 185 186 182
198 187 194 196 187 191 193 202 198 217 195 207 231 191 200 195 189 194 193 197 198 196 194 185 190 194 201 187 183 216 204 208 187 186 179 179 178 178 187 191 191 193 191
213 167 172 186 191 197 208 213 213 212 205 207 218 241 223 202 198 192 198 204 188 198 205 195 199 177 179 192 196 200 214 209 211 170 192 188 184 182 182 200 191 194 192
53 7 10 175 196 191 194 208 232 261 246 235 228 215 222 234 208 202 205 198 183 196 216 199 187 192 178 179 184 199 208 226 210 209 190 193 192 184 184 186 184 194 183
47 31 12 357 4 142 171 178 189 212 214 233 241 244 231 227 237 206 214 225 195 198 211 212 201 189 214 166 110 360 326 259 240 221 206 195 198 193 183 184 177 178 185
61 39 27 24 17 20 15 19 33 170 215 226 223 226 226 215 219 266 246 216 213 220 214 207 199 224 219 182 162 101 234 313 257 227 210 207 197 183 188 187 181 181 183
46 32 22 3 359 357 4 349 0 42 16 93 242 242 239 232 225 221 238 224 227 213 213 214 219 190 203 215 212 150 143 225 191 237 228 215 199 190 188 184 189 187 185
49 19 2 359 352 342 18 28 15 261 263 243 266 256 259 234 231 233 233 218 207 212 230 223 209 214 179 204 259 240 209 148 189 276 280 239 217 205 198 192 191 191 190
81 34 356 356 6 3 354 7 352 301 255 271 287 297 278 255 242 227 226 226 219 231 223 212 205 193 208 210 206 208 250 284 189 146 239 267 232 205 204 196 177 188 180
71 46 22 20 8 11 13 360 13 328 309 318 311 310 300 290 265 250 226 220 218 215 225 219 221 216 212 224 217 204 186 194 224 205 231 260 256 260 216 210 174 175 168